Time,TemperatureF,DewpointF,PressureIn,WindDirection,WindDirectionDegrees,WindSpeedMPH,WindSpeedGustMPH,Humidity,HourlyPrecipIn,Conditions,Clouds,dailyrainin,SoftwareType,DateUTC
2013-02-10 00:21:00,42.0,38.0,30.09,North,0,0.0,-999.0,85,0.00,,,-99.99,,2013-02-10 08:21:00,
2013-02-10 00:32:00,42.0,38.0,30.09,North,0,0.0,-999.0,85,0.00,,,-99.99,,2013-02-10 08:32:00,
2013-02-10 00:43:00,42.0,38.0,30.09,North,0,0.0,-999.0,85,0.00,,,-99.99,,2013-02-10 08:43:00,
2013-02-10 00:52:00,42.0,38.0,30.09,North,0,0.0,-999.0,85,0.00,,,-99.99,,2013-02-10 08:52:00,
2013-02-10 01:21:00,41.0,37.0,30.09,North,0,0.0,-999.0,87,0.00,,,-99.99,,2013-02-10 09:21:00,
2013-02-10 01:31:00,41.0,37.0,30.09,North,0,0.0,-999.0,87,0.00,,,-99.99,,2013-02-10 09:31:00,
2013-02-10 01:41:00,41.0,37.0,30.09,North,0,0.0,-999.0,87,0.00,,,-99.99,,2013-02-10 09:41:00,
2013-02-10 01:51:00,41.0,37.0,30.09,North,0,0.0,-999.0,87,0.00,,,-99.99,,2013-02-10 09:51:00,
2013-02-10 02:21:00,42.0,38.0,30.08,ESE,110,2.0,-999.0,86,0.00,,,-99.99,,2013-02-10 10:21:00,
2013-02-10 02:31:00,42.0,38.0,30.08,ESE,110,2.0,-999.0,86,0.00,,,-99.99,,2013-02-10 10:31:00,
2013-02-10 02:41:00,42.0,38.0,30.08,ESE,110,2.0,-999.0,86,0.00,,,-99.99,,2013-02-10 10:41:00,
2013-02-10 02:51:00,42.0,38.0,30.08,ESE,110,2.0,-999.0,86,0.00,,,-99.99,,2013-02-10 10:51:00,
2013-02-10 03:21:00,43.0,38.0,30.07,ESE,110,2.0,-999.0,84,0.00,,,-99.99,,2013-02-10 11:21:00,
2013-02-10 03:32:00,43.0,38.0,30.07,ESE,110,2.0,-999.0,84,0.00,,,-99.99,,2013-02-10 11:32:00,
2013-02-10 03:42:00,43.0,38.0,30.07,ESE,110,2.0,-999.0,84,0.00,,,-99.99,,2013-02-10 11:42:00,
2013-02-10 03:52:00,43.0,38.0,30.07,ESE,110,2.0,-999.0,84,0.00,,,-99.99,,2013-02-10 11:52:00,
2013-02-10 04:21:00,39.0,36.0,30.05,North,0,0.0,-999.0,88,0.00,,,-99.99,,2013-02-10 12:21:00,
2013-02-10 04:32:00,39.0,36.0,30.05,North,0,0.0,-999.0,88,0.00,,,-99.99,,2013-02-10 12:32:00,
2013-02-10 04:41:00,39.0,36.0,30.05,North,0,0.0,-999.0,88,0.00,,,-99.99,,2013-02-10 12:41:00,
2013-02-10 04:52:00,39.0,36.0,30.05,North,0,0.0,-999.0,88,0.00,,,-99.99,,2013-02-10 12:52:00,
2013-02-10 05:21:00,39.0,35.0,30.05,North,0,0.0,-999.0,86,0.00,,,-99.99,,2013-02-10 13:21:00,
2013-02-10 05:31:00,39.0,35.0,30.05,North,0,0.0,-999.0,86,0.00,,,-99.99,,2013-02-10 13:31:00,
2013-02-10 05:41:00,39.0,35.0,30.05,North,0,0.0,-999.0,86,0.00,,,-99.99,,2013-02-10 13:41:00,
2013-02-10 05:51:00,39.0,35.0,30.05,North,0,0.0,-999.0,86,0.00,,,-99.99,,2013-02-10 13:51:00,
2013-02-10 06:21:00,39.0,35.0,30.05,ESE,110,1.0,-999.0,84,0.00,,,-99.99,,2013-02-10 14:21:00,
2013-02-10 06:31:00,39.0,35.0,30.05,ESE,110,1.0,-999.0,84,0.00,,,-99.99,,2013-02-10 14:31:00,
2013-02-10 06:41:00,39.0,35.0,30.05,ESE,110,1.0,-999.0,84,0.00,,,-99.99,,2013-02-10 14:41:00,
2013-02-10 06:52:00,39.0,35.0,30.05,ESE,110,1.0,-999.0,84,0.00,,,-99.99,,2013-02-10 14:52:00,
2013-02-10 07:21:00,41.0,36.0,30.06,North,0,0.0,-999.0,81,0.00,,,-99.99,,2013-02-10 15:21:00,
2013-02-10 07:31:00,41.0,36.0,30.06,North,0,0.0,-999.0,81,0.00,,,-99.99,,2013-02-10 15:31:00,
2013-02-10 07:41:00,41.0,36.0,30.06,North,0,0.0,-999.0,81,0.00,,,-99.99,,2013-02-10 15:41:00,
2013-02-10 07:51:00,41.0,36.0,30.06,North,0,0.0,-999.0,81,0.00,,,-99.99,,2013-02-10 15:51:00,
2013-02-10 08:21:00,42.0,37.0,30.07,ESE,110,2.0,-999.0,81,0.00,,,-99.99,,2013-02-10 16:21:00,
2013-02-10 08:32:00,42.0,37.0,30.07,ESE,110,2.0,-999.0,81,0.00,,,-99.99,,2013-02-10 16:32:00,
2013-02-10 08:42:00,42.0,37.0,30.07,ESE,110,2.0,-999.0,81,0.00,,,-99.99,,2013-02-10 16:42:00,
2013-02-10 08:51:00,42.0,37.0,30.07,ESE,110,2.0,-999.0,81,0.00,,,-99.99,,2013-02-10 16:51:00,
2013-02-10 09:21:00,49.0,40.0,30.08,ESE,120,1.0,-999.0,71,0.00,,,-99.99,,2013-02-10 17:21:00,
2013-02-10 09:32:00,49.0,40.0,30.08,ESE,120,1.0,-999.0,71,0.00,,,-99.99,,2013-02-10 17:32:00,
2013-02-10 09:42:00,49.0,40.0,30.08,ESE,120,1.0,-999.0,71,0.00,,,-99.99,,2013-02-10 17:42:00,
2013-02-10 09:52:00,49.0,40.0,30.08,ESE,120,1.0,-999.0,71,0.00,,,-99.99,,2013-02-10 17:52:00,
2013-02-10 10:21:00,54.0,44.0,30.08,SE,130,2.0,-999.0,68,0.00,,,-99.99,,2013-02-10 18:21:00,
2013-02-10 10:32:00,54.0,44.0,30.08,SE,130,2.0,-999.0,68,0.00,,,-99.99,,2013-02-10 18:32:00,
2013-02-10 10:42:00,54.0,44.0,30.08,SE,130,2.0,-999.0,68,0.00,,,-99.99,,2013-02-10 18:42:00,
2013-02-10 10:52:00,54.0,44.0,30.08,SE,130,2.0,-999.0,68,0.00,,,-99.99,,2013-02-10 18:52:00,
2013-02-10 11:21:00,54.0,43.0,30.08,South,180,6.0,-999.0,67,0.00,,,-99.99,,2013-02-10 19:21:00,
2013-02-10 11:32:00,54.0,43.0,30.08,South,180,6.0,-999.0,67,0.00,,,-99.99,,2013-02-10 19:32:00,
2013-02-10 11:42:00,54.0,43.0,30.08,South,180,6.0,-999.0,67,0.00,,,-99.99,,2013-02-10 19:42:00,
2013-02-10 11:51:00,54.0,43.0,30.08,South,180,6.0,-999.0,67,0.00,,,-99.99,,2013-02-10 19:51:00,
2013-02-10 12:21:00,54.0,43.0,30.06,WNW,290,5.0,-999.0,66,0.00,,,-99.99,,2013-02-10 20:21:00,
2013-02-10 12:32:00,54.0,43.0,30.06,WNW,290,5.0,-999.0,66,0.00,,,-99.99,,2013-02-10 20:32:00,
2013-02-10 12:42:00,54.0,43.0,30.06,WNW,290,5.0,-999.0,66,0.00,,,-99.99,,2013-02-10 20:42:00,
2013-02-10 12:52:00,54.0,43.0,30.06,WNW,290,5.0,-999.0,66,0.00,,,-99.99,,2013-02-10 20:52:00,
2013-02-10 13:21:00,54.0,44.0,30.04,West,270,3.0,-999.0,70,0.00,,,-99.99,,2013-02-10 21:21:00,
2013-02-10 13:32:00,54.0,44.0,30.04,West,270,3.0,-999.0,70,0.00,,,-99.99,,2013-02-10 21:32:00,
2013-02-10 13:42:00,54.0,44.0,30.04,West,270,3.0,-999.0,70,0.00,,,-99.99,,2013-02-10 21:42:00,
2013-02-10 13:51:00,54.0,44.0,30.04,West,270,3.0,-999.0,70,0.00,,,-99.99,,2013-02-10 21:51:00,
2013-02-10 14:21:00,52.0,43.0,30.03,WNW,290,3.0,-999.0,71,0.00,,,-99.99,,2013-02-10 22:21:00,
2013-02-10 14:32:00,52.0,43.0,30.03,WNW,290,3.0,-999.0,71,0.00,,,-99.99,,2013-02-10 22:32:00,
2013-02-10 14:42:00,52.0,43.0,30.03,WNW,290,3.0,-999.0,71,0.00,,,-99.99,,2013-02-10 22:42:00,
2013-02-10 14:52:00,52.0,43.0,30.03,WNW,290,3.0,-999.0,71,0.00,,,-99.99,,2013-02-10 22:52:00,
2013-02-10 15:21:00,53.0,43.0,30.02,West,260,6.0,-999.0,70,0.00,,,-99.99,,2013-02-10 23:21:00,
2013-02-10 15:32:00,53.0,43.0,30.02,West,260,6.0,-999.0,70,0.00,,,-99.99,,2013-02-10 23:32:00,
2013-02-10 15:42:00,53.0,43.0,30.02,West,260,6.0,-999.0,70,0.00,,,-99.99,,2013-02-10 23:42:00,
2013-02-10 15:52:00,53.0,43.0,30.02,West,260,6.0,-999.0,70,0.00,,,-99.99,,2013-02-10 23:52:00,
2013-02-10 16:22:00,53.0,43.0,30.02,WSW,240,5.0,-999.0,69,0.00,,,-99.99,,2013-02-11 00:22:00,
2013-02-10 16:32:00,53.0,43.0,30.02,WSW,240,5.0,-999.0,69,0.00,,,-99.99,,2013-02-11 00:32:00,
2013-02-10 16:42:00,53.0,43.0,30.02,WSW,240,5.0,-999.0,69,0.00,,,-99.99,,2013-02-11 00:42:00,
2013-02-10 16:51:00,53.0,43.0,30.02,WSW,240,5.0,-999.0,69,0.00,,,-99.99,,2013-02-11 00:51:00,
2013-02-10 17:21:00,53.0,43.0,30.02,SW,230,1.0,-999.0,69,0.00,,,-99.99,,2013-02-11 01:21:00,
2013-02-10 17:32:00,53.0,43.0,30.02,SW,230,1.0,-999.0,69,0.00,,,-99.99,,2013-02-11 01:32:00,
2013-02-10 17:41:00,53.0,43.0,30.02,SW,230,1.0,-999.0,69,0.00,,,-99.99,,2013-02-11 01:41:00,
2013-02-10 17:52:00,53.0,43.0,30.02,SW,230,1.0,-999.0,69,0.00,,,-99.99,,2013-02-11 01:52:00,
2013-02-10 18:21:00,52.0,43.0,30.02,WSW,250,4.0,-999.0,71,0.00,,,-99.99,,2013-02-11 02:21:00,
2013-02-10 18:31:00,52.0,43.0,30.02,WSW,250,4.0,-999.0,71,0.00,,,-99.99,,2013-02-11 02:31:00,
2013-02-10 18:42:00,52.0,43.0,30.02,WSW,250,4.0,-999.0,71,0.00,,,-99.99,,2013-02-11 02:42:00,
2013-02-10 18:52:00,52.0,43.0,30.02,WSW,250,4.0,-999.0,71,0.00,,,-99.99,,2013-02-11 02:52:00,
2013-02-10 19:21:00,50.0,44.0,30.02,NNW,340,1.0,-999.0,80,0.00,,,-99.99,,2013-02-11 03:21:00,
2013-02-10 19:31:00,50.0,44.0,30.02,NNW,340,1.0,-999.0,80,0.00,,,-99.99,,2013-02-11 03:31:00,
2013-02-10 19:41:00,50.0,44.0,30.02,NNW,340,1.0,-999.0,80,0.00,,,-99.99,,2013-02-11 03:41:00,
2013-02-10 19:52:00,50.0,44.0,30.02,NNW,340,1.0,-999.0,80,0.00,,,-99.99,,2013-02-11 03:52:00,
2013-02-10 20:21:00,48.0,45.0,30.04,North,0,0.0,-999.0,90,0.02,,,-99.99,,2013-02-11 04:21:00,
2013-02-10 20:31:00,48.0,45.0,30.04,North,0,0.0,-999.0,90,0.02,,,-99.99,,2013-02-11 04:31:00,
2013-02-10 20:42:00,48.0,45.0,30.04,North,0,0.0,-999.0,90,0.02,,,-99.99,,2013-02-11 04:42:00,
2013-02-10 20:51:00,48.0,45.0,30.04,North,0,0.0,-999.0,90,0.02,,,-99.99,,2013-02-11 04:51:00,
2013-02-10 21:22:00,48.0,45.0,30.04,North,0,0.0,-999.0,89,0.00,,,-99.99,,2013-02-11 05:22:00,
2013-02-10 21:31:00,48.0,45.0,30.04,North,0,0.0,-999.0,89,0.00,,,-99.99,,2013-02-11 05:31:00,
2013-02-10 21:42:00,48.0,45.0,30.04,North,0,0.0,-999.0,89,0.00,,,-99.99,,2013-02-11 05:42:00,
2013-02-10 21:52:00,48.0,45.0,30.04,North,0,0.0,-999.0,89,0.00,,,-99.99,,2013-02-11 05:52:00,
2013-02-10 22:21:00,47.0,44.0,30.05,East,100,1.0,-999.0,88,0.00,,,-99.99,,2013-02-11 06:21:00,
2013-02-10 22:32:00,47.0,44.0,30.05,East,100,1.0,-999.0,88,0.00,,,-99.99,,2013-02-11 06:32:00,
2013-02-10 22:42:00,47.0,44.0,30.05,East,100,1.0,-999.0,88,0.00,,,-99.99,,2013-02-11 06:42:00,
2013-02-10 22:51:00,47.0,44.0,30.05,East,100,1.0,-999.0,88,0.00,,,-99.99,,2013-02-11 06:51:00,
2013-02-10 23:21:00,47.0,44.0,30.04,North,0,0.0,-999.0,88,0.00,,,-99.99,,2013-02-11 07:21:00,
2013-02-10 23:32:00,47.0,44.0,30.04,North,0,0.0,-999.0,88,0.00,,,-99.99,,2013-02-11 07:32:00,
2013-02-10 23:41:00,47.0,44.0,30.04,North,0,0.0,-999.0,88,0.00,,,-99.99,,2013-02-11 07:41:00,
2013-02-10 23:51:00,47.0,44.0,30.04,North,0,0.0,-999.0,88,0.00,,,-99.99,,2013-02-11 07:51:00,